Binghamton, NY

2:33 PM EST on December 05, 2016 (GMT -0500)
Binghamton Regional-Link

Weather History for KBGM - November, 2013

Change the Weather History Date:

Thursday, November 28, 2013

  Actual Average Record
Temperature  
Mean Temperature 21 °F 34 °F  
Max Temperature 24 °F 40 °F 70 °F (1990)
Min Temperature 17 °F 27 °F 6 °F (1951)
Degree Days  
Heating Degree Days 44 32  
Month to date heating degree days 818 740  
Since 1 July heating degree days 1502 1512  
Cooling Degree Days 0 0  
Month to date cooling degree days 0 0  
Year to date cooling degree days 480 381  
Moisture  
Dew Point 11 °F    
Average Humidity 67    
Maximum Humidity 84    
Minimum Humidity 50    
Precipitation  
Precipitation T in 0.11 in 1.28 in (2004)
Month to date precipitation 3.49 3.07  
Year to date precipitation 39.50 36.24  
Snow  
Snow T in 0.30 in 4.80 in (1972)
Month to date snowfall 8.0 5.1  
Since 1 July snowfall 8.0 6.1  
Since 1 September snowfall 8.0 6.1  
Snow Depth 2.00 in    
Sea Level Pressure  
Sea Level Pressure 30.13 in    
Wind  
Wind Speed 9 mph (WNW)    
Max Wind Speed 23 mph    
Max Gust Speed 35 mph    
Visibility 7 miles    
Events Snow    
T = Trace of Precipitation, MM = Missing Value Source: NWS Daily Summary

Daily Weather History Graph

Daily Weather History Graph

Search for Another Location

Airport or City:

Trip Planner

Search our weather history database for the weather conditions in past years. The results will help you decide how hot, cold, wet, or windy it might be!

Date:

Astronomy

Nov. 28, 2013 Rise Set
Actual Time 7:09 AM EST 4:33 PM EST
Civil Twilight 6:38 AM EST 5:04 PM EST
Nautical Twilight 6:04 AM EST 5:39 PM EST
Astronomical Twilight 5:30 AM EST 6:13 PM EST
Moon 2:05 AM EST (11/28) 1:46 PM EST (11/28)
Length of Visible Light 10h 25m
Length of Day
9h 23m
Waning Crescent, 22% of the Moon is Illuminated
Nov 28
Waning Crescent
Dec 2
New
Dec 9
First Quarter
Dec 17
Full
Dec 25
Last Quarter

Hourly Weather History & Observations

Time (EST) Temp. Windchill Dew Point Humidity Pressure Visibility Wind Dir Wind Speed Gust Speed Precip Events Conditions
12:17 AM 21.2 °F 8.9 °F 15.8 °F 80% 29.75 in 3.0 mi NW 12.7 mph 21.9 mph 0.00 in Snow Light Snow
12:53 AM 21.0 °F 7.1 °F 14.0 °F 74% 29.84 in 3.0 mi NW 16.1 mph 31.1 mph 0.00 in Snow Light Snow
1:26 AM 19.4 °F 7.2 °F 15.8 °F 86% 29.79 in 2.5 mi NW 11.5 mph 23.0 mph 0.00 in Snow Light Snow
1:53 AM 19.9 °F 6.2 °F 15.1 °F 81% 29.88 in 3.0 mi WNW 15.0 mph 26.5 mph 0.00 in Snow Light Snow
2:04 AM 19.4 °F 7.2 °F 15.8 °F 86% 29.83 in 1.8 mi WNW 11.5 mph 24.2 mph 0.00 in Snow Light Snow
2:33 AM 19.4 °F 7.2 °F 15.8 °F 86% 29.84 in 3.0 mi WNW 11.5 mph 24.2 mph 0.00 in Snow Light Snow
2:53 AM 19.9 °F 5.2 °F 12.9 °F 74% 29.91 in 3.0 mi WNW 17.3 mph 28.8 mph 0.00 in Snow Light Snow
3:01 AM 19.4 °F 4.5 °F 12.2 °F 74% 29.86 in 3.0 mi WNW 17.3 mph 25.3 mph 0.00 in Snow Light Snow
3:15 AM 19.4 °F 4.1 °F 12.2 °F 74% 29.87 in 2.0 mi WNW 18.4 mph 28.8 mph 0.00 in Snow Light Snow
3:30 AM 19.4 °F 5.5 °F 12.2 °F 74% 29.88 in 3.0 mi WNW 15.0 mph 26.5 mph 0.00 in Snow Light Snow
3:53 AM 19.0 °F 3.2 °F 12.0 °F 74% 29.97 in 5.0 mi WNW 19.6 mph 28.8 mph 0.00 in Snow Light Snow
4:08 AM 19.4 °F 5.0 °F 10.4 °F 68% 29.92 in 4.0 mi WNW 16.1 mph 34.5 mph 0.00 in Snow Light Snow
4:44 AM 19.4 °F 5.5 °F 10.4 °F 68% 29.95 in 8.0 mi WNW 15.0 mph 26.5 mph 0.00 in Snow Light Snow
4:53 AM 19.0 °F 5.0 °F 10.0 °F 68% 30.03 in 9.0 mi West 15.0 mph 27.6 mph 0.00 in   Overcast
5:37 AM 17.6 °F 2.7 °F 10.4 °F 73% 30.00 in 9.0 mi WNW 16.1 mph 24.2 mph 0.00 in Snow Light Snow
5:53 AM 18.0 °F 3.6 °F 10.0 °F 71% 30.09 in 10.0 mi WNW 15.0 mph 21.9 mph 0.00 in   Overcast
6:53 AM 17.1 °F 3.6 °F 10.9 °F 77% 30.12 in 4.0 mi WNW 12.7 mph 21.9 mph 0.00 in Snow Light Snow
7:32 AM 17.6 °F 4.3 °F 12.2 °F 79% 30.07 in 2.5 mi WNW 12.7 mph 19.6 mph 0.00 in Snow Light Snow
7:40 AM 17.6 °F 3.7 °F 12.2 °F 79% 30.08 in 3.0 mi WNW 13.8 mph 19.6 mph 0.00 in Snow Light Snow
7:46 AM 17.6 °F 4.3 °F 12.2 °F 79% 30.08 in 2.5 mi WNW 12.7 mph 19.6 mph 0.00 in Snow Light Snow
7:53 AM 17.1 °F 4.3 °F 12.0 °F 81% 30.16 in 3.0 mi WNW 11.5 mph 20.7 mph 0.00 in Snow Light Snow
8:00 AM 17.6 °F 5.0 °F 12.2 °F 79% 30.09 in 4.0 mi West 11.5 mph 19.6 mph 0.00 in Snow Light Snow
8:31 AM 17.6 °F 5.0 °F 10.4 °F 73% 30.11 in 10.0 mi WNW 11.5 mph 23.0 mph 0.00 in   Clear
8:53 AM 18.0 °F 4.2 °F 10.0 °F 71% 30.20 in 10.0 mi NW 13.8 mph 23.0 mph 0.00 in   Clear
9:02 AM 19.4 °F 8.6 °F 10.4 °F 68% 30.13 in 10.0 mi WNW 9.2 mph 19.6 mph N/A   Mostly Cloudy
9:09 AM 19.4 °F 6.0 °F 10.4 °F 68% 30.14 in 10.0 mi WNW 13.8 mph 23.0 mph N/A   Scattered Clouds
9:53 AM 19.9 °F 5.7 °F 10.0 °F 65% 30.24 in 10.0 mi WNW 16.1 mph 24.2 mph N/A   Scattered Clouds
10:00 AM 19.4 °F 5.0 °F 8.6 °F 63% 30.17 in 10.0 mi WNW 16.1 mph 24.2 mph N/A   Overcast
10:53 AM 21.0 °F 8.1 °F 10.0 °F 63% 30.26 in 10.0 mi WNW 13.8 mph 20.7 mph N/A   Overcast
11:30 AM 21.2 °F 8.3 °F 8.6 °F 58% 30.18 in 10.0 mi WNW 13.8 mph 21.9 mph N/A   Overcast
11:53 AM 23.0 °F 11.7 °F 10.0 °F 58% 30.26 in 10.0 mi NW 11.5 mph - N/A   Overcast
12:53 PM 23.0 °F 12.4 °F 7.0 °F 50% 30.28 in 10.0 mi NW 10.4 mph 20.7 mph N/A   Scattered Clouds
1:53 PM 23.0 °F 14.7 °F 8.1 °F 53% 30.28 in 10.0 mi NW 6.9 mph - N/A   Partly Cloudy
2:53 PM 23.0 °F 14.7 °F 9.0 °F 55% 30.29 in 10.0 mi WNW 6.9 mph - N/A   Overcast
3:53 PM 23.0 °F 14.7 °F 9.0 °F 55% 30.31 in 10.0 mi WNW 6.9 mph - N/A   Overcast
4:53 PM 21.9 °F - 10.0 °F 60% 30.33 in 10.0 mi Calm Calm - N/A   Mostly Cloudy
5:53 PM 21.0 °F - 10.0 °F 63% 30.36 in 10.0 mi Calm Calm - N/A   Overcast
6:53 PM 21.9 °F - 10.0 °F 60% 30.38 in 10.0 mi Calm Calm - N/A   Overcast
7:53 PM 21.9 °F - 10.9 °F 63% 30.38 in 10.0 mi Calm Calm - N/A   Overcast
8:53 PM 19.9 °F 14.9 °F 12.9 °F 74% 30.40 in 10.0 mi South 3.5 mph - N/A   Overcast
9:07 PM 21.2 °F - 12.2 °F 68% 30.32 in 10.0 mi Calm Calm - N/A   Overcast
9:14 PM 21.2 °F - 12.2 °F 68% 30.32 in 10.0 mi Calm Calm - N/A   Overcast
9:53 PM 21.0 °F - 12.9 °F 71% 30.40 in 10.0 mi Calm Calm - N/A   Overcast
10:53 PM 21.0 °F - 14.0 °F 74% 30.41 in 10.0 mi Calm Calm - N/A   Overcast
11:53 PM 21.9 °F 17.2 °F 16.0 °F 78% 30.42 in 10.0 mi SSW 3.5 mph - N/A   Overcast